Location: Mentone
(34.5413°N, 85.5351°W)
Time: 05:28:56
(UTC-06:00)

UOSAT-12 - Visible Passes

Search period start: 25 November 2017 00:00
Search period end: 05 December 2017 00:00
Orbit: 595 x 659 km, 64.6° (Epoch: 25 November)

Date Brightness Start Highest point End Pass type
(mag) Time Alt. Az. Time Alt. Az. Time Alt. Az.
25 Nov 9.5 04:07:34 14° NNE 04:09:46 19° NE 04:13:06 10° E visible
25 Nov 7.6 05:45:35 10° NW 05:50:04 45° WSW 05:54:30 10° S visible
26 Nov 8.4 04:27:33 24° N 04:29:49 39° NE 04:34:11 10° SE visible
27 Nov 7.1 04:47:37 34° NNW 04:49:40 90° E 04:54:19 10° SSE visible
27 Nov 9.1 18:52:12 10° SSW 18:53:37 20° SSW 18:53:37 20° SSW visible
28 Nov 9.6 03:30:25 20° ENE 03:30:25 20° ENE 03:32:46 10° ESE visible
28 Nov 7.7 05:07:47 29° WNW 05:09:19 38° WSW 05:13:36 10° S visible
28 Nov 9.0 17:34:55 10° SE 17:36:33 13° ESE 17:36:33 13° ESE visible
28 Nov 9.1 19:11:57 10° SW 19:13:54 24° SW 19:13:54 24° SW visible
29 Nov 8.7 03:50:39 34° ESE 03:50:39 34° ESE 03:53:37 10° SE visible
29 Nov 8.8 05:28:00 16° W 05:28:48 16° WSW 05:31:39 10° SSW visible
29 Nov 7.9 17:52:22 10° S 17:56:19 30° ESE 17:56:46 30° E visible
29 Nov 9.7 19:32:35 10° WSW 19:34:07 17° W 19:34:07 17° W visible
30 Nov 8.4 04:10:56 34° SSE 04:10:56 34° SSE 04:13:35 10° SSE visible
30 Nov 7.0 18:11:25 10° SSW 18:15:55 75° ESE 18:16:54 53° NE visible
01 Dec 9.1 04:31:16 18° SSW 04:31:16 18° SSW 04:32:39 10° S visible
01 Dec 8.9 16:53:27 10° SE 16:56:05 15° ESE 16:58:45 10° ENE visible
01 Dec 8.0 18:31:21 10° SW 18:35:44 46° WNW 18:36:58 37° NNW visible
02 Dec 7.8 17:11:25 10° S 17:15:33 36° ESE 17:19:36 11° NE visible
02 Dec 9.2 18:52:11 10° WSW 18:55:44 22° NW 18:56:55 20° NNW visible
03 Dec 7.1 17:30:40 10° SSW 17:35:12 89° ESE 17:39:28 12° NNE visible
03 Dec 9.9 19:14:47 10° WNW 19:15:58 11° NW 19:16:47 10° NNW visible
04 Dec 8.3 17:50:47 10° SW 17:55:03 39° NW 17:59:15 11° NNE visible
